Time,TemperatureF,DewpointF,PressureIn,WindDirection,WindDirectionDegrees,WindSpeedMPH,WindSpeedGustMPH,Humidity,HourlyPrecipIn,Conditions,Clouds,dailyrainin,SoftwareType,DateUTC
2013-05-17 00:02:00,63.6,61.0,29.95,SSE,155,0.0,0.0,92,0.00,,,0.76,weatherlink.com 1.10,2013-05-17 04:02:00,
2013-05-17 00:17:00,63.5,62.0,29.95,SSE,155,0.0,0.0,93,0.00,,,0.00,weatherlink.com 1.10,2013-05-17 04:17:00,
2013-05-17 00:32:00,63.2,61.0,29.96,SSE,155,0.0,1.0,93,0.00,,,0.00,weatherlink.com 1.10,2013-05-17 04:32:00,
2013-05-17 00:47:00,62.9,61.0,29.96,SSE,155,1.0,2.0,93,0.00,,,0.00,weatherlink.com 1.10,2013-05-17 04:47:00,
2013-05-17 01:02:00,62.5,61.0,29.96,SSE,155,0.0,1.0,93,0.00,,,0.00,weatherlink.com 1.10,2013-05-17 05:02:00,
2013-05-17 01:17:00,62.3,60.0,29.97,SSE,155,0.0,0.0,93,0.00,,,0.00,weatherlink.com 1.10,2013-05-17 05:17:00,
2013-05-17 01:32:00,62.5,61.0,29.96,SSE,155,0.0,1.0,94,0.00,,,0.00,weatherlink.com 1.10,2013-05-17 05:32:00,
2013-05-17 01:47:00,62.2,60.0,29.96,SSE,155,0.0,0.0,93,0.00,,,0.00,weatherlink.com 1.10,2013-05-17 05:47:00,
2013-05-17 02:02:00,61.7,60.0,29.96,SSE,155,0.0,0.0,93,0.00,,,0.00,weatherlink.com 1.10,2013-05-17 06:02:00,
2013-05-17 02:17:00,61.6,60.0,29.96,SSE,155,0.0,0.0,94,0.00,,,0.00,weatherlink.com 1.10,2013-05-17 06:17:00,
2013-05-17 02:32:00,61.5,60.0,29.97,SSE,155,0.0,0.0,94,0.00,,,0.00,weatherlink.com 1.10,2013-05-17 06:32:00,
2013-05-17 02:47:00,61.4,60.0,29.97,SSE,155,0.0,1.0,94,0.00,,,0.00,weatherlink.com 1.10,2013-05-17 06:47:00,
2013-05-17 03:02:00,61.3,60.0,29.97,ESE,123,1.0,4.0,94,0.00,,,0.00,weatherlink.com 1.10,2013-05-17 07:02:00,
2013-05-17 03:17:00,61.1,60.0,29.97,ESE,117,0.0,3.0,95,0.00,,,0.00,weatherlink.com 1.10,2013-05-17 07:17:00,
2013-05-17 03:32:00,60.9,60.0,29.97,South,186,0.0,4.0,95,0.00,,,0.00,weatherlink.com 1.10,2013-05-17 07:32:00,
2013-05-17 03:47:00,60.8,59.0,29.97,SSE,166,0.0,3.0,95,0.00,,,0.00,weatherlink.com 1.10,2013-05-17 07:47:00,
2013-05-17 04:02:00,60.1,59.0,29.97,ESE,112,1.0,3.0,95,0.00,,,0.00,weatherlink.com 1.10,2013-05-17 08:02:00,
2013-05-17 04:17:00,60.0,59.0,29.97,SE,128,1.0,2.0,95,0.00,,,0.00,weatherlink.com 1.10,2013-05-17 08:17:00,
2013-05-17 04:32:00,59.9,59.0,29.97,SE,144,0.0,2.0,96,0.00,,,0.00,weatherlink.com 1.10,2013-05-17 08:32:00,
2013-05-17 04:47:00,59.9,59.0,29.97,SE,144,0.0,1.0,96,0.00,,,0.00,weatherlink.com 1.10,2013-05-17 08:47:00,
2013-05-17 05:02:00,60.1,59.0,29.98,SE,144,0.0,2.0,96,0.00,,,0.00,weatherlink.com 1.10,2013-05-17 09:02:00,
2013-05-17 05:17:00,60.2,59.0,29.98,SE,144,0.0,1.0,96,0.00,,,0.00,weatherlink.com 1.10,2013-05-17 09:17:00,
2013-05-17 05:32:00,60.3,59.0,29.98,SE,144,0.0,1.0,96,0.00,,,0.00,weatherlink.com 1.10,2013-05-17 09:32:00,
2013-05-17 05:48:00,60.0,59.0,29.98,SE,144,0.0,0.0,96,0.00,,,0.00,weatherlink.com 1.10,2013-05-17 09:48:00,
2013-05-17 06:03:00,60.0,59.0,29.98,SE,144,0.0,0.0,96,0.00,,,0.00,weatherlink.com 1.10,2013-05-17 10:03:00,
2013-05-17 06:18:00,59.8,59.0,29.99,SE,144,0.0,1.0,96,0.00,,,0.00,weatherlink.com 1.10,2013-05-17 10:18:00,
2013-05-17 06:33:00,59.6,59.0,30.00,SE,144,0.0,1.0,96,0.00,,,0.00,weatherlink.com 1.10,2013-05-17 10:33:00,
2013-05-17 06:48:00,60.1,59.0,30.00,SE,144,0.0,1.0,96,0.00,,,0.00,weatherlink.com 1.10,2013-05-17 10:48:00,
2013-05-17 07:03:00,60.2,59.0,30.00,SE,144,0.0,0.0,96,0.00,,,0.00,weatherlink.com 1.10,2013-05-17 11:03:00,
2013-05-17 07:18:00,60.7,60.0,30.00,SE,144,0.0,0.0,96,0.00,,,0.00,weatherlink.com 1.10,2013-05-17 11:18:00,
2013-05-17 07:33:00,61.0,60.0,30.01,SE,144,0.0,2.0,96,0.00,,,0.00,weatherlink.com 1.10,2013-05-17 11:33:00,
2013-05-17 07:48:00,61.2,60.0,30.01,SE,144,0.0,0.0,96,0.00,,,0.00,weatherlink.com 1.10,2013-05-17 11:48:00,
2013-05-17 08:03:00,62.1,61.0,30.01,SE,144,0.0,1.0,96,0.00,,,0.00,weatherlink.com 1.10,2013-05-17 12:03:00,
2013-05-17 08:18:00,62.3,61.0,30.01,SSW,197,0.0,2.0,96,0.00,,,0.00,weatherlink.com 1.10,2013-05-17 12:18:00,
2013-05-17 08:33:00,63.2,62.0,30.02,SSW,200,0.0,2.0,95,0.00,,,0.00,weatherlink.com 1.10,2013-05-17 12:33:00,
2013-05-17 08:48:00,64.1,62.0,30.02,SSW,200,0.0,2.0,93,0.00,,,0.00,weatherlink.com 1.10,2013-05-17 12:48:00,
2013-05-17 09:03:00,66.1,63.0,30.01,SSW,202,0.0,2.0,90,0.00,,,0.00,weatherlink.com 1.10,2013-05-17 13:03:00,
2013-05-17 09:18:00,68.0,64.0,30.02,SSW,202,0.0,2.0,87,0.00,,,0.00,weatherlink.com 1.10,2013-05-17 13:18:00,
2013-05-17 09:33:00,69.7,65.0,30.02,SSE,147,0.0,2.0,86,0.00,,,0.00,weatherlink.com 1.10,2013-05-17 13:33:00,
2013-05-17 09:48:00,71.5,66.0,30.02,SE,128,1.0,2.0,82,0.00,,,0.00,weatherlink.com 1.10,2013-05-17 13:48:00,
2013-05-17 10:03:00,72.4,66.0,30.02,SE,139,0.0,3.0,79,0.00,,,0.00,weatherlink.com 1.10,2013-05-17 14:03:00,
2013-05-17 10:18:00,72.6,66.0,30.02,SE,126,2.0,3.0,80,0.00,,,0.00,weatherlink.com 1.10,2013-05-17 14:18:00,
2013-05-17 10:33:00,72.8,66.0,30.02,SE,139,0.0,5.0,78,0.00,,,0.00,weatherlink.com 1.10,2013-05-17 14:33:00,
2013-05-17 10:48:00,73.0,66.0,30.02,SE,136,2.0,4.0,78,0.00,,,0.00,weatherlink.com 1.10,2013-05-17 14:48:00,
2013-05-17 11:03:00,73.9,66.0,30.02,SE,145,1.0,3.0,76,0.00,,,0.00,weatherlink.com 1.10,2013-05-17 15:03:00,
2013-05-17 11:18:00,75.1,66.0,30.02,SSE,155,1.0,3.0,74,0.00,,,0.00,weatherlink.com 1.10,2013-05-17 15:18:00,
2013-05-17 11:33:00,75.6,67.0,30.01,South,175,0.0,3.0,74,0.00,,,0.00,weatherlink.com 1.10,2013-05-17 15:33:00,
2013-05-17 11:48:00,77.0,66.0,30.01,SE,128,1.0,5.0,69,0.00,,,0.00,weatherlink.com 1.10,2013-05-17 15:48:00,
2013-05-17 12:03:00,77.8,66.0,30.02,ESE,107,2.0,4.0,66,0.00,,,0.00,weatherlink.com 1.10,2013-05-17 16:03:00,
2013-05-17 12:19:00,78.0,65.0,30.02,ESE,118,1.0,3.0,64,0.00,,,0.00,weatherlink.com 1.10,2013-05-17 16:19:00,
2013-05-17 12:34:00,78.3,64.0,30.02,ESE,108,0.0,4.0,62,0.00,,,0.00,weatherlink.com 1.10,2013-05-17 16:34:00,
2013-05-17 12:49:00,77.9,63.0,30.01,SSE,153,3.0,4.0,61,0.00,,,0.00,weatherlink.com 1.10,2013-05-17 16:49:00,
2013-05-17 13:04:00,79.1,63.0,30.01,SE,131,1.0,7.0,58,0.00,,,0.00,weatherlink.com 1.10,2013-05-17 17:04:00,
2013-05-17 13:19:00,79.4,64.0,30.00,ESE,116,1.0,5.0,60,0.00,,,0.00,weatherlink.com 1.10,2013-05-17 17:19:00,
2013-05-17 13:34:00,80.9,64.0,30.00,SE,128,0.0,2.0,57,0.00,,,0.00,weatherlink.com 1.10,2013-05-17 17:34:00,
2013-05-17 13:49:00,81.7,66.0,30.00,ESE,107,0.0,7.0,59,0.00,,,0.00,weatherlink.com 1.10,2013-05-17 17:49:00,
2013-05-17 14:04:00,81.8,65.0,29.99,SSE,159,1.0,8.0,58,0.00,,,0.00,weatherlink.com 1.10,2013-05-17 18:04:00,
2013-05-17 14:19:00,82.9,67.0,29.98,NE,41,4.0,6.0,58,0.00,,,0.00,weatherlink.com 1.10,2013-05-17 18:19:00,
2013-05-17 14:34:00,83.2,66.0,29.97,SE,128,3.0,9.0,56,0.00,,,0.00,weatherlink.com 1.10,2013-05-17 18:34:00,
2013-05-17 14:49:00,82.8,64.0,29.97,SE,128,3.0,9.0,54,0.00,,,0.00,weatherlink.com 1.10,2013-05-17 18:49:00,
2013-05-17 15:04:00,82.1,65.0,29.96,East,86,1.0,6.0,57,0.00,,,0.00,weatherlink.com 1.10,2013-05-17 19:04:00,
2013-05-17 15:19:00,81.0,65.0,29.97,East,92,2.0,5.0,58,0.00,,,0.00,weatherlink.com 1.10,2013-05-17 19:19:00,
2013-05-17 15:34:00,80.3,66.0,29.97,East,97,0.0,2.0,61,0.00,,,0.00,weatherlink.com 1.10,2013-05-17 19:34:00,
2013-05-17 15:49:00,78.9,66.0,29.98,South,180,5.0,5.0,64,0.00,,,0.00,weatherlink.com 1.10,2013-05-17 19:49:00,
2013-05-17 16:04:00,71.5,60.0,30.00,SSW,210,8.0,23.0,67,0.00,,,0.00,weatherlink.com 1.10,2013-05-17 20:04:00,
2013-05-17 16:19:00,64.7,60.0,30.00,SSW,211,7.0,23.0,84,0.27,,,0.27,weatherlink.com 1.10,2013-05-17 20:19:00,
2013-05-17 16:34:00,64.2,61.0,30.00,SSW,203,0.0,1.0,88,0.36,,,0.36,weatherlink.com 1.10,2013-05-17 20:34:00,
2013-05-17 16:49:00,64.0,61.0,29.99,SSW,203,0.0,1.0,90,0.39,,,0.39,weatherlink.com 1.10,2013-05-17 20:49:00,
2013-05-17 17:04:00,64.9,63.0,29.98,SSW,203,0.0,3.0,92,0.41,,,0.41,weatherlink.com 1.10,2013-05-17 21:04:00,
2013-05-17 17:19:00,65.8,64.0,29.98,SE,125,0.0,3.0,93,0.14,,,0.41,weatherlink.com 1.10,2013-05-17 21:19:00,
2013-05-17 17:34:00,66.5,65.0,29.99,South,171,0.0,2.0,93,0.05,,,0.41,weatherlink.com 1.10,2013-05-17 21:34:00,
2013-05-17 17:49:00,67.7,65.0,29.99,South,171,0.0,2.0,91,0.02,,,0.41,weatherlink.com 1.10,2013-05-17 21:49:00,
2013-05-17 18:04:00,69.0,66.0,29.99,South,169,0.0,2.0,90,0.00,,,0.41,weatherlink.com 1.10,2013-05-17 22:04:00,
2013-05-17 18:19:00,69.3,66.0,29.98,South,169,0.0,1.0,89,0.00,,,0.41,weatherlink.com 1.10,2013-05-17 22:19:00,
2013-05-17 18:34:00,69.6,66.0,29.99,SSE,168,1.0,1.0,89,0.00,,,0.41,weatherlink.com 1.10,2013-05-17 22:34:00,
2013-05-17 18:49:00,69.7,66.0,29.99,SSE,168,0.0,2.0,89,0.00,,,0.41,weatherlink.com 1.10,2013-05-17 22:49:00,
2013-05-17 19:04:00,69.8,67.0,29.99,SSE,168,0.0,1.0,89,0.00,,,0.41,weatherlink.com 1.10,2013-05-17 23:04:00,
2013-05-17 19:19:00,69.8,67.0,29.99,SSE,168,0.0,0.0,90,0.00,,,0.41,weatherlink.com 1.10,2013-05-17 23:19:00,
2013-05-17 19:34:00,69.7,67.0,30.00,SSE,168,0.0,1.0,90,0.00,,,0.41,weatherlink.com 1.10,2013-05-17 23:34:00,
2013-05-17 19:49:00,69.6,67.0,30.00,SSE,168,0.0,2.0,90,0.00,,,0.41,weatherlink.com 1.10,2013-05-17 23:49:00,
2013-05-17 20:04:00,69.0,66.0,30.01,NE,38,0.0,3.0,89,0.00,,,0.41,weatherlink.com 1.10,2013-05-18 00:04:00,
2013-05-17 20:19:00,68.8,65.0,30.01,NNE,15,0.0,3.0,88,0.00,,,0.41,weatherlink.com 1.10,2013-05-18 00:19:00,
2013-05-17 20:34:00,68.8,66.0,30.02,NNE,15,0.0,0.0,89,0.00,,,0.41,weatherlink.com 1.10,2013-05-18 00:34:00,
2013-05-17 20:49:00,68.4,65.0,30.01,NNE,15,0.0,1.0,89,0.00,,,0.41,weatherlink.com 1.10,2013-05-18 00:49:00,
2013-05-17 21:04:00,68.0,65.0,30.01,NNE,15,0.0,1.0,90,0.00,,,0.41,weatherlink.com 1.10,2013-05-18 01:04:00,
2013-05-17 21:19:00,67.7,65.0,30.02,NNE,15,0.0,1.0,91,0.00,,,0.41,weatherlink.com 1.10,2013-05-18 01:19:00,
2013-05-17 21:34:00,67.6,65.0,30.01,NNE,15,0.0,1.0,91,0.00,,,0.41,weatherlink.com 1.10,2013-05-18 01:34:00,
2013-05-17 21:49:00,67.5,65.0,30.02,NNE,15,0.0,0.0,92,0.00,,,0.41,weatherlink.com 1.10,2013-05-18 01:49:00,
2013-05-17 22:04:00,67.3,65.0,30.02,NNE,15,0.0,0.0,92,0.00,,,0.41,weatherlink.com 1.10,2013-05-18 02:04:00,
2013-05-17 22:19:00,67.1,65.0,30.03,NNE,15,0.0,0.0,92,0.00,,,0.41,weatherlink.com 1.10,2013-05-18 02:19:00,
2013-05-17 22:34:00,67.0,65.0,30.03,NNE,15,0.0,0.0,93,0.00,,,0.41,weatherlink.com 1.10,2013-05-18 02:34:00,
2013-05-17 22:49:00,66.9,65.0,30.03,NNE,15,0.0,1.0,93,0.00,,,0.41,weatherlink.com 1.10,2013-05-18 02:49:00,
2013-05-17 23:04:00,66.7,65.0,30.03,NNE,15,0.0,1.0,93,0.00,,,0.41,weatherlink.com 1.10,2013-05-18 03:04:00,
2013-05-17 23:19:00,66.8,65.0,30.03,NNE,15,0.0,1.0,93,0.00,,,0.41,weatherlink.com 1.10,2013-05-18 03:19:00,
2013-05-17 23:34:00,66.6,65.0,30.03,NNE,15,0.0,1.0,93,0.00,,,0.41,weatherlink.com 1.10,2013-05-18 03:34:00,
2013-05-17 23:49:00,66.5,65.0,30.03,NNE,15,0.0,2.0,93,0.00,,,0.41,weatherlink.com 1.10,2013-05-18 03:49:00,